TimeGMT,TemperatureF,Dew PointF,Humidity,Sea Level PressureIn,VisibilityMPH,Wind Direction,Wind SpeedMPH,Gust SpeedMPH,PrecipitationIn,Events,Conditions,WindDirDegrees,DateUTC
12:00 AM,44,43,93,30.43,12,WNW,2.2,,,Rain,Light Rain Showers,300,2013-12-06 00:00:00
12:00 AM,44.6,42.8,93,30.42,6.2,WNW,2.3,-,N/A,,Mostly Cloudy,300,2013-12-06 00:00:00
12:30 AM,44.6,42.8,93,30.42,6.2,WSW,4.6,-,N/A,,Mostly Cloudy,240,2013-12-06 00:30:00
1:00 AM,44.6,42.8,93,30.42,6.2,SW,4.6,-,N/A,,Mostly Cloudy,220,2013-12-06 01:00:00
1:30 AM,44.6,42.8,93,30.39,6.2,SW,6.9,-,N/A,,Scattered Clouds,220,2013-12-06 01:30:00
2:00 AM,44.6,42.8,93,30.42,6.2,SW,6.9,-,N/A,,Scattered Clouds,220,2013-12-06 02:00:00
2:30 AM,44.6,44.6,100,30.42,6.2,SW,6.9,-,N/A,,Mostly Cloudy,220,2013-12-06 02:30:00
3:00 AM,44.6,44.6,100,30.42,6.2,SSW,4.6,-,N/A,,Mostly Cloudy,210,2013-12-06 03:00:00
3:30 AM,46.4,44.6,93,30.42,6.2,SW,4.6,-,N/A,,Mostly Cloudy,230,2013-12-06 03:30:00
4:00 AM,46.4,44.6,93,30.42,6.2,SW,4.6,-,N/A,,Mostly Cloudy,230,2013-12-06 04:00:00
4:30 AM,46.4,46.4,100,30.42,6.2,West,8.1,-,N/A,Rain,Light Rain Showers,260,2013-12-06 04:30:00
5:00 AM,46.4,46.4,100,30.42,6.2,WSW,9.2,-,N/A,,Mostly Cloudy,250,2013-12-06 05:00:00
5:30 AM,48.2,46.4,93,30.42,6.2,WSW,9.2,-,N/A,,Mostly Cloudy,250,2013-12-06 05:30:00
6:00 AM,48,46,88,30.42,12,West,6.7,,,Rain,Light Rain Showers,270,2013-12-06 06:00:00
6:00 AM,48.2,46.4,93,30.42,6.2,West,6.9,-,N/A,,Mostly Cloudy,270,2013-12-06 06:00:00
6:30 AM,48.2,44.6,87,30.42,6.2,West,12.7,-,N/A,,Mostly Cloudy,260,2013-12-06 06:30:00
7:00 AM,46.4,42.8,87,30.42,6.2,WSW,9.2,-,N/A,,Mostly Cloudy,240,2013-12-06 07:00:00
7:30 AM,46.4,44.6,93,30.42,6.2,WSW,11.5,-,N/A,,Scattered Clouds,240,2013-12-06 07:30:00
8:00 AM,46.4,44.6,93,30.42,6.2,SW,8.1,-,N/A,,Scattered Clouds,230,2013-12-06 08:00:00
8:30 AM,48.2,44.6,87,30.42,6.2,West,10.4,-,N/A,,Mostly Cloudy,260,2013-12-06 08:30:00
9:00 AM,48.2,44.6,87,30.45,6.2,WSW,6.9,-,N/A,,Scattered Clouds,250,2013-12-06 09:00:00
9:30 AM,46.4,42.8,87,30.45,6.2,West,8.1,-,N/A,,Scattered Clouds,260,2013-12-06 09:30:00
10:00 AM,46.4,42.8,87,30.45,6.2,WSW,8.1,-,N/A,Rain,Light Rain Showers,240,2013-12-06 10:00:00
10:30 AM,48.2,44.6,87,30.45,6.2,SW,8.1,-,N/A,,Partly Cloudy,230,2013-12-06 10:30:00
11:00 AM,50.0,44.6,82,30.45,6.2,WSW,11.5,-,N/A,Rain,Light Rain Showers,240,2013-12-06 11:00:00
11:30 AM,48.2,44.6,87,30.45,4.3,West,9.2,-,N/A,,Light Drizzle,260,2013-12-06 11:30:00
12:00 PM,48,45,87,30.45,7,West,11.2,,,Rain,Light Drizzle,270,2013-12-06 12:00:00
12:00 PM,48.2,44.6,87,30.45,6.2,West,10.4,-,N/A,,Scattered Clouds,270,2013-12-06 12:00:00
12:30 PM,48.2,46.4,93,30.45,6.2,WSW,10.4,-,N/A,,Scattered Clouds,240,2013-12-06 12:30:00
1:00 PM,51.8,46.4,82,30.42,6.2,WSW,10.4,-,N/A,,Scattered Clouds,250,2013-12-06 13:00:00
1:30 PM,51.8,46.4,82,30.42,6.2,West,12.7,-,N/A,,Mostly Cloudy,260,2013-12-06 13:30:00
2:00 PM,51.8,46.4,82,30.42,6.2,West,11.5,-,N/A,,Scattered Clouds,260,2013-12-06 14:00:00
2:30 PM,50.0,44.6,82,30.42,4.3,West,11.5,-,N/A,Rain,Light Rain Showers,270,2013-12-06 14:30:00
3:00 PM,48.2,44.6,87,30.42,6.2,West,13.8,-,N/A,,Mostly Cloudy,280,2013-12-06 15:00:00
3:30 PM,50.0,44.6,82,30.42,6.2,West,11.5,-,N/A,,Mostly Cloudy,270,2013-12-06 15:30:00
4:00 PM,48.2,44.6,87,30.42,6.2,WSW,10.4,-,N/A,,Mostly Cloudy,250,2013-12-06 16:00:00
4:30 PM,48.2,44.6,87,30.42,6.2,WSW,9.2,-,N/A,,Mostly Cloudy,250,2013-12-06 16:30:00
5:00 PM,48.2,44.6,87,30.42,6.2,West,10.4,-,N/A,,Light Drizzle,260,2013-12-06 17:00:00
5:30 PM,46.4,44.6,93,30.42,6.2,West,9.2,-,N/A,,Light Drizzle,260,2013-12-06 17:30:00
6:00 PM,46,45,93,30.43,12,SW,8.9,,,Rain,Light Drizzle,230,2013-12-06 18:00:00
6:00 PM,46.4,44.6,93,30.42,6.2,SW,9.2,-,N/A,,Mostly Cloudy,230,2013-12-06 18:00:00
6:30 PM,46.4,44.6,93,30.42,6.2,WSW,6.9,-,N/A,,Mostly Cloudy,250,2013-12-06 18:30:00
7:00 PM,46.4,44.6,93,30.42,6.2,SW,9.2,-,N/A,,Mostly Cloudy,230,2013-12-06 19:00:00
7:30 PM,46.4,44.6,93,30.42,6.2,WSW,8.1,-,N/A,,Mostly Cloudy,250,2013-12-06 19:30:00
8:00 PM,46.4,44.6,93,30.42,6.2,WSW,8.1,-,N/A,,Mostly Cloudy,240,2013-12-06 20:00:00
8:30 PM,46.4,44.6,93,30.42,6.2,WSW,10.4,-,N/A,,Mostly Cloudy,240,2013-12-06 20:30:00
9:00 PM,46.4,44.6,93,30.42,6.2,WSW,6.9,-,N/A,,Mostly Cloudy,250,2013-12-06 21:00:00
9:30 PM,46.4,44.6,93,30.39,6.2,WNW,2.3,-,N/A,,Mostly Cloudy,290,2013-12-06 21:30:00
10:00 PM,46.4,44.6,93,30.39,6.2,SW,3.5,-,N/A,,Mostly Cloudy,230,2013-12-06 22:00:00
10:30 PM,44.6,42.8,93,30.39,6.2,South,2.3,-,N/A,,Mostly Cloudy,190,2013-12-06 22:30:00
11:00 PM,44.6,42.8,93,30.39,6.2,SSW,5.8,-,N/A,,Mostly Cloudy,210,2013-12-06 23:00:00
11:30 PM,46.4,44.6,93,30.39,3.1,SSW,5.8,-,N/A,Rain,Light Rain,200,2013-12-06 23:30:00